GW6280 Weather Reports


Display with metric or nautical units.
time (UTC)temp
F
wind
direction
speed
MPH
gust
MPH
rain 1hr
in
rain 24hr
in
rain mn
in
humidity
%
barometer
mb
20260505124028 55 164 3.0 5.0 0.00 0.00 0.00 89 1016.1
20260505123033 55 102 3.0 5.0 0.00 0.00 0.00 89 1016.0
20260505122038 55 129 3.0 5.0 0.00 0.00 0.00 90 1015.9
20260505121021 55 135 3.0 5.0 0.00 0.00 0.00 90 1015.9
20260505120024 55 114 3.0 7.0 0.00 0.00 0.00 90 1015.9
20260505115022 55 144 3.0 5.0 0.00 0.00 0.00 90 1015.9
20260505114019 55 130 2.0 3.0 0.00 0.00 0.00 90 1015.8
20260505113037 55 124 2.0 5.0 0.00 0.00 0.00 90 1015.6
20260505112020 55 86 4.0 6.0 0.00 0.00 0.00 90 1015.6
20260505111024 55 108 3.0 5.0 0.00 0.00 0.00 91 1015.6
20260505102043 54 128 2.0 4.0 0.00 0.00 0.00 93 1015.1
20260505101046 53 180 0.0 2.0 0.00 0.00 0.00 94 1015.1
20260505100029 53 119 2.0 4.0 0.00 0.00 0.00 95 1015.1
20260505095015 53 134 1.0 3.0 0.00 0.00 0.00 95 1015.0
20260505094018 52 106 1.0 3.0 0.00 0.00 0.00 95 1014.9
20260505093043 52 121 1.0 3.0 0.00 0.00 0.00 95 1014.9
20260505092026 52 155 1.0 3.0 0.00 0.00 0.00 95 1014.8
20260505091030 52 135 0.0 3.0 0.00 0.00 0.00 95 1014.6
20260505090033 52 237 1.0 3.0 0.00 0.00 0.00 95 1014.6
20260505085018 52 0.0 0.0 0.00 0.00 0.00 95 1014.6
20260505084022 52 0.0 0.0 0.00 0.00 0.00 95 1014.6
20260505083025 52 0.0 0.0 0.00 0.00 0.00 95 1014.5
20260505082028 53 261 0.0 3.0 0.00 0.00 0.00 95 1014.5
20260505081046 52 199 1.0 3.0 0.00 0.00 0.00 95 1014.4
20260505080038 52 270 0.0 1.0 0.00 0.00 0.00 95 1014.5
20260505075101 53 0.0 0.0 0.00 0.00 0.00 95 1014.3
20260505074038 53 0.0 0.0 0.00 0.00 0.00 95 1014.1
20260505073015 53 225 0.0 3.0 0.00 0.00 0.00 95 1014.1
20260505072031 53 90 0.0 1.0 0.00 0.00 0.00 95 1014.0
20260505071037 53 0.0 2.0 0.00 0.00 0.00 94 1013.9
20260505070040 52 273 1.0 2.0 0.00 0.00 0.00 94 1013.8
20260505065023 53 0.0 0.0 0.00 0.00 0.00 92 1013.7
20260505064027 53 0.0 0.0 0.00 0.00 0.00 92 1013.6
20260505063051 53 0.0 0.0 0.00 0.00 0.00 92 1013.6
20260505062016 54 237 1.0 3.0 0.00 0.00 0.00 90 1013.4
20260505061019 54 0.0 0.0 0.00 0.00 0.00 91 1013.3
20260505060023 54 0.0 0.0 0.00 0.00 0.00 91 1013.0
20260505055026 54 0.0 0.0 0.00 0.00 0.00 90 1013.0
20260505054050 55 0.0 0.0 0.00 0.00 0.00 89 1012.9
20260505053015 55 0.0 0.0 0.00 0.00 0.00 88 1012.9
20260505052040 56 0.0 0.0 0.00 0.00 0.00 86 1012.8
20260505051022 56 0.0 0.0 0.00 0.00 0.00 86 1012.6
20260505041024 59 0.0 0.0 0.00 0.00 0.00 77 1012.0
20260505040022 60 0.0 0.0 0.00 0.00 0.00 78 1011.9
20260505035020 61 225 1.0 3.0 0.00 0.00 0.00 77 1011.7
20260505034017 62 0.0 0.0 0.00 0.00 0.00 73 1011.6
20260505033020 63 0.0 0.0 0.00 0.00 0.00 72 1011.6
20260505032024 64 0.0 0.0 0.00 0.00 0.00 70 1011.5
20260505031028 65 0.0 0.0 0.00 0.00 0.00 68 1011.3
20260505030051 65 0.0 0.0 0.00 0.00 0.00 67 1011.3
20260505025016 66 0.0 0.0 0.00 0.00 0.00 66 1011.2
20260505024020 66 260 2.0 2.0 0.00 0.00 0.00 65 1011.1
20260505023023 67 0.0 0.0 0.00 0.00 0.00 63 1011.1
20260505022027 67 248 1.0 2.0 0.00 0.00 0.00 63 1011.1
20260505021030 68 267 1.0 2.0 0.00 0.00 0.00 62 1011.1
20260505020036 68 239 1.0 2.0 0.00 0.00 0.00 61 1011.1
20260505015019 69 270 0.0 2.0 0.00 0.00 0.00 59 1011.2
20260505014022 70 215 1.0 2.0 0.00 0.00 0.00 59 1011.2
20260505013026 71 280 1.0 2.0 0.00 0.00 0.00 59 1011.1
20260505012049 72 269 1.0 2.0 0.00 0.00 0.00 54 1011.3
20260505011033 72 26 1.0 5.0 0.00 0.00 0.00 54 1011.3
20260505010018 73 113 0.0 2.0 0.00 0.00 0.00 58 1011.3
20260505005016 74 286 1.0 3.0 0.00 0.00 0.00 56 1011.3
20260505004020 74 254 2.0 3.0 0.00 0.00 0.00 52 1011.3
20260505003023 74 244 2.0 2.0 0.00 0.00 0.00 52 1011.3
20260505002026 76 253 3.0 3.0 0.00 0.00 0.00 48 1011.3
20260505001044 76 148 2.0 3.0 0.00 0.00 0.00 47 1011.1
20260505000015 77 259 2.0 5.0 0.00 0.00 0.00 47 1011.3
20260504235019 78 237 2.0 3.0 0.00 0.00 0.00 46 1011.3
20260504234016 79 258 3.0 5.0 0.00 0.00 0.00 44 1011.2
20260504233025 79 244 2.0 4.0 0.00 0.00 0.00 45 1011.1
20260504232029 79 230 3.0 5.0 0.00 0.00 0.00 45 1011.3
20260504231053 79 196 3.0 4.0 0.00 0.00 0.00 46 1011.4
20260504230038 79 256 3.0 7.0 0.00 0.00 0.00 47 1011.6
20260504225021 78 98 3.0 6.0 0.00 0.00 0.00 49 1011.7
20260504224025 78 222 3.0 5.0 0.00 0.00 0.00 48 1011.8
20260504223028 77 192 3.0 6.0 0.00 0.00 0.00 50 1011.8
20260504222032 79 189 3.0 5.0 0.00 0.00 0.00 49 1011.9
20260504221017 78 96 3.0 6.0 0.00 0.00 0.00 50 1012.0
20260504220021 78 81 3.0 5.0 0.00 0.00 0.00 51 1012.1
20260504215024 77 139 3.0 5.0 0.00 0.00 0.00 53 1012.2
20260504214027 77 118 3.0 8.0 0.00 0.00 0.00 52 1012.3
20260504213051 76 137 3.0 4.0 0.00 0.00 0.00 54 1012.4
20260504212016 75 90 3.0 5.0 0.00 0.00 0.00 55 1012.4
20260504211020 74 97 4.0 6.0 0.00 0.00 0.00 56 1012.5
20260504210043 74 125 5.0 7.0 0.00 0.00 0.00 56 1012.6
20260504205027 74 114 4.0 7.0 0.00 0.00 0.00 55 1012.6
20260504204030 74 109 4.0 6.0 0.00 0.00 0.00 56 1012.6
20260504203016 74 103 4.0 6.0 0.00 0.00 0.00 56 1012.6
20260504202019 73 118 3.0 6.0 0.00 0.00 0.00 56 1012.6
20260504201022 72 112 4.0 6.0 0.00 0.00 0.00 56 1012.6
20260504200019 74 89 5.0 7.0 0.00 0.00 0.00 53 1012.5
20260504195018 76 146 3.0 6.0 0.00 0.00 0.00 48 1012.5
20260504194032 74 121 4.0 6.0 0.00 0.00 0.00 51 1012.6
20260504193018 73 92 4.0 5.0 0.00 0.00 0.00 51 1012.6
20260504192021 72 100 4.0 8.0 0.00 0.00 0.00 54 1012.9
20260504191025 71 180 4.0 6.0 0.00 0.00 0.00 55 1012.9
20260504190029 72 119 3.0 6.0 0.00 0.00 0.00 55 1013.0
20260504185032 71 108 3.0 5.0 0.00 0.00 0.00 55 1013.0
20260504184017 72 82 4.0 6.0 0.00 0.00 0.00 53 1013.1
20260504183021 72 87 4.0 6.0 0.00 0.00 0.00 54 1013.0
20260504182024 72 93 3.0 5.0 0.00 0.00 0.00 55 1012.9
20260504181027 72 107 4.0 5.0 0.00 0.00 0.00 54 1013.0
20260504180032 71 107 3.0 5.0 0.00 0.00 0.00 57 1013.0
20260504175016 70 111 5.0 6.0 0.00 0.00 0.00 56 1013.0
20260504174019 69 123 2.0 5.0 0.00 0.00 0.00 56 1013.0
20260504173023 68 84 3.0 6.0 0.00 0.00 0.00 60 1013.1
20260504172026 67 106 4.0 5.0 0.00 0.00 0.00 63 1013.1
20260504171030 67 98 4.0 5.0 0.00 0.00 0.00 61 1013.1
20260504151030 57 113 1.0 3.0 0.00 0.00 0.00 78 1012.6
20260504141033 48 0.0 0.0 0.00 0.00 0.00 98 1012.3